Regional Weather Roundup
Issued by NWS

Home | Current Version | Previous Version | Text Only | Print | Product List | Glossary Off
Versions: 1 2 3 4 5 6 7 8 9 10 11 12 13 14 15 16 17 18 19 20 21 22 23 24 25 26 27 28 29 30 31 32 33 34 35 36 37 38 39 40 41 42 43 44 45 46 47 48 49 50

000
ASUS43 KIND 240159
RWRIN

WEATHER ROUNDUP FOR INDIANA
NATIONAL WEATHER SERVICE INDIANAPOLIS IN
900 PM EST TUE JAN 23 2018

NOTE: "FAIR" INDICATES FEW OR NO CLOUDS BELOW 12,000 FEET WITH NO
SIGNIFICANT WEATHER AND/OR OBSTRUCTIONS TO VISIBILITY.

* - STATION DOES NOT REPORT WEATHER SUCH AS PRECIPITATION OR FOG.

+ - STATION NOT QUALITY CONTROLLED BY THE NATIONAL WEATHER SERVICE.
    USE DATA WITH CAUTION...ESPECIALLY DEWPOINT AND RELATIVE
    HUMIDITY OBSERVATIONS.

INZ001>003-010>013-019-020-240300-
NORTHWEST INDIANA

CITY           SKY/WX    TMP DP  RH WIND       PRES   REMARKS
GARY /AIRPORT/ CLOUDY    32  23  69 NW14      30.12R WCI  22
KNOX *+        CLOUDY    30  27  86 NW10      30.08R WCI  21
MICHIGAN CITY+ CLOUDY    30  28  93 NW7G16    30.08S WCI  23
MONTICELLO +   CLOUDY    30  25  79 NW15      30.09R WCI  19
RENSSELAER +   CLOUDY    32  25  74 NW9G16    30.11R WCI  24

$$

LMZ046-743>745-240300-
SOUTHERN LAKE MICHIGAN

STATION/POSITION TIME  TEMP    WIND        PRES    WAVE
                       AIR SEA DIR/SP/G            HT
                 (UTC) (F)     (DEG/KT/KT) (MB)    (FT)
BURNS HARBOR     0140   30     310/ 12/ 14 1019.6R
MICHIGAN CITY    0130   30     290/ 18/ 20   N/A

$$

INZ004-005-014>016-021>024-240300-
NORTH CENTRAL INDIANA

CITY           SKY/WX    TMP DP  RH WIND       PRES   REMARKS
ELKHART        CLOUDY    30  27  86 NW12G17   30.03R WCI  21
GOSHEN         CLOUDY    30  26  85 NW13      30.03R WCI  20
SOUTH BEND     CLOUDY    29  26  89 NW10      30.05R WCI  20

$$

INZ006>009-017-018-025>027-240300-
NORTHEAST INDIANA

CITY           SKY/WX    TMP DP  RH WIND       PRES   REMARKS
FORT WAYNE     CLOUDY    31  27  85 W16       30.03R WCI  20
KENDALLVILLE + CLOUDY    30  27  88 NW9       29.99R WCI  21

$$

INZ028-029-035-036-043>045-051>053-240300-
WEST CENTRAL INDIANA

CITY           SKY/WX    TMP DP  RH WIND       PRES   REMARKS
CRAWFORDSVL +  CLOUDY    29  29 100 MISG      30.10R FOG
GREENCASTLE +  CLOUDY    32  28  86 NW3       30.13R
LAFAYETTE      CLOUDY    30  27  88 NW9       30.11R WCI  22
TERRE HAUTE    CLOUDY    32  29  88 W5        30.15R WCI  27

$$

INZ030>032-037>040-046>048-054>057-064-065-240300-
CENTRAL INDIANA

CITY           SKY/WX    TMP DP  RH WIND       PRES   REMARKS
COLUMBUS       CLOUDY    32  28  86 W13       30.12R WCI  22
INDIANAPOLIS   FLURRIES  31  27  85 W14G25    30.10R WCI  21
-EAGLE CREEK   CLOUDY    44  26  49 NW14      30.10R
MT COMFORT *+  CLOUDY    30  30 100 NW13      30.09R WCI  20
SHELBYVILLE    CLOUDY    33  28  81 W10       30.09R WCI  25

$$

INZ033-034-041-042-049-050-058-059-240300-
EAST CENTRAL INDIANA

CITY           SKY/WX    TMP DP  RH WIND       PRES   REMARKS
MUNCIE         CLOUDY    32  26  78 NW16G23   30.05R WCI  21
RICHMOND +     CLOUDY    32  30  93 W17       30.04R WCI  21

$$

INZ060-061-067>069-081>083-085>088-240300-
SOUTHWEST INDIANA

CITY           SKY/WX    TMP DP  RH WIND       PRES   REMARKS
EVANSVILLE     CLOUDY    35  29  78 W8        30.22R WCI  29
HUNTINGBURG +  CLOUDY    33  28  81 W9        30.19R WCI  25

$$

INZ062-063-066-070>080-084-089>092-240300-
SOUTH CENTRAL AND SOUTHEAST INDIANA

CITY           SKY/WX    TMP DP  RH WIND       PRES   REMARKS
BLOOMINGTON    CLOUDY    32  27  81 NW9       30.12R WCI  24
FRENCH LICK *+ CLOUDY    32  27  80 W8        30.16R WCI  25
SEYMOUR +      CLOUDY    34  28  80 W12G20    30.13R WCI  25

$$





USA.gov is the U.S. government's official web portal to all federal, state and local government web resources and services.